SCP
0 0 0 0 0 0 0 0 0 0 0 0 0 0 0 0 0 0 0 0 0 0 0 0 0 0 0 0 0 0 0 0 0 0 0 0 0 0 0 0 0 0 0 0 0 0 0 0 0
0 0 0 0 0 0 0 0 0 0 0 0 0 0 0 0 0 0 0 0 0 0 0 0 0 0 0 0 0 0 0 0 0 0 0 0 0 0 0 0 0 0 0 0 0 0 0 0 0
0 0 0 0 0 0 0 0 0 0 0 0 0 0 0 0 0 0 0 0 0 0 0 0 0 0 0 0 0 0 0 0 0 0 0 0 0 0 0 0 0 0 0 0 0 0 0 0 0
0 0 0 0 0 0 0 0 0 0 0 0 0 0 0 0 0 0 0 0 0 0 0 0 0 0 0 0 0 0 0 0 0 0 0 0 0 0 0 0 0 0 0 0 0 0 0 0 0
0 0 0 0 0 0 0 0 0 0 0 0 0 0 0 0 0 0 0 0 0 0 0 0 0 0 0 0 0 0 0 0 0 0 0 0 0 0 0 0 0 0 0 0 0 0 0 0 0
0 0 0 0 0 0 0 0 0 0 0 0 0 0 0 0 0 0 0 0 0 0 0 0 0 0 0 0 0 0 0 0 0 0 0 0 0 0 0 0 0 0 0 0 0 0 0 0 0
0 0 0 0 0 0 0 0 0 0 0 0 0 0 0 0 0 0 0 0 0 0 0 0 0 0 0 0 0 0 0 0 0 0 0 0 0 0 0 0 0 0 0 0 0 0 0 0 0
0 0 0 0 0 0 0 0 0 0 0 0 0 0 0 0 0 0 0 0 0 0 0 0 0 0 0 0 0 0 0 0 0 0 0 0 0 0 0 0 0 0 0 0 0 0 0 0 0
0 0 0 0 0 0 0 0 0 0 0 0 0 0 0 0 0 0 0 0 0 0 0 0 0 0 0 0 0 0 0 0 0 0 0 0 0 0 0 0 0 0 0 0 0 0 0 0 0
0 0 0 0 0 0 0 0 0 0 0 0 0 0 0 0 0 0 0 0 0 0 0 0 0 0 0 0 0 0 0 0 0 0 0 0 0 0 0 0 0 0 0 0 0 0 0 0 0
0 0 0 0 0 0 0 0 0 0 0 0 0 0 0 0 0 0 0 0 0 0 0 0 0 0 0 0 0 0 0 0 0 0 0 0 0 0 0 0 0 0 0 0 0 0 0 0 0
0 0 0 0 0 0 0 0 0 0 0 0 0 0 0 0 0 0 0 0 0 0 0 0 0 0 0 0 0 0 0 0 0 0 0 0 0 0 0 0 0 0 0 0 0 0 0 0 0
0 0 0 0 0 0 0 0 0 0 0 0 0 0 0 0 0 0 0 0 0 0 0 0 0 0 0 0 0 0 0 0 0 0 0 0 0 0 0 0 0 0 0 0 0 0 0 0 0
0 0 0 0 0 0 0 0 0 0 0 0 0 0 0 0 0 0 0 0 0 0 0 0 0 0 0 0 0 0 0 0 0 0 0 0 0 0 0 0 0 0 0 0 0 0 0 0 0
0 0 0 0 0 0 0 0 0 0 0 0 0 0 0 0 0 0 0 0 0 0 0 0 0 0 0 0 0 0 0 0 0 0 0 0 0 0 0 0 0 0 0 0 0 0 0 0 0
0 0 0 0 0 0 0 0 0 0 0 0 0 0 0 0 0 0 0 0 0 0 0 0 0 0 0 0 0 0 0 0 0 0 0 0 0 0 0 0 0 0 0 0 0 0 0 0 0
0 0 0 0 0 0 0 0 0 0 0 0 0 0 0 0 0 0 0 0 0 0 0 0 0 0 0 0 0 0 0 0 0 0 0 0 0 0 0 0 0 0 0 0 0 0 0 0 0
0 0 0 0 0 0 0 0 0 0 0 0 0 0 0 0 0 0 0 0 0 0 0 0 0 0 0 0 0 0 0 0 0 0 0 0 0 0 0 0 0 0 0 0 0 0 0 0 0
0 0 0 0 0 0 0 0 0 0 0 0 0 0 0 0 0 0 0 0 0 0 0 0 0 0 0 0 0 0 0 0 0 -0 0 0 0 0 0 0 0 0 0 0 0 0 0 0 0
-0 -0 0 0 0 0 0 0 0 0 0 0 0 0 0 0 0 0 0 0 0 0 0 0 0 0 0 0 0 0 0 0 0 0 0 0 0 0 0 0 0 0 0 0 0 0 0 0 0
-0 -0 0 0 0 0 0 0 0 0 0 0 0 0 0 0 0 0 0 0 0 0 0 0 0 0 0 0 0 0 0 0 0 0 0 0 0 0 0 0 0 0 0 0 0 0 0 0 0
-0 -0 0 0 0 0 0 0 0 0 0 0 0 0 0 0 0 0 0 0 0 0 0 0 0 0 0 0 0 0 0 0 0 0 0 0 0 0 0 0 0 0 0 0 0 0 0 0 0
0 0 0 0 0 0 0 0 0 0 0 0 0 0 0 0 0 0 0 0 0 0 0 0 0 0 0 0 0 0 0 0 0 0 0 0 0 0 0 0 0 0 0 0 0 0 0 0 0
-0 0 0 0 0 0 0 0 0 0 0 0 0 0 0 0 0 0 0 0 0 0 0 0 0 0 0 0 0 0 0 0 0 0 0 0 0 0 0 0 0 0 0 0 0 0 0 0 0
-0 0 0 0 0 0 0 0 0 0 0 0 0 0 0 0 0 0 0 0 0 0 0 0 0 0 0 0 0 0 0 0 0 0 0 0 0 0 0 0 0 0 0 0 0 0 0 0 0
-0 0 0 0 0 0 0 0 0 0 0 0 0 0 0 0 0 0 0 0 0 0 0 0 0 0 0 0 0 0 0 0 0 0 0 0 0 0 0 0 0 0 0 0 0 0 0 0 0
-0 0 0 0 0 0 0 0 0 0 0 0 0 0 0 0 0 0 0 0 0 0 0 0 0 0 0 0 0 0 0 0 0 0 0 0 0 0 0 0 0 0 0 0 0 0 0 0 0
0 0 0 0 0 0 0 0 0 0 0 0 0 0 0 0 0 0 0 0 0 0 0 0 0 0 0 0 0 0 0 0 0 0 0 0 0 0 0 0 0 0 0 0 0 0 0 0 0
0 0 0 0 0 0 0 0 0 0 0 0 0 0 0 0 0 0 0 0 0 0 0 0 0 0 0 0 0 0 0 0 0 0 0 0 0 0 0 0 0 0 0 0 0 0 0 0 0
0 0 0 0 0 0 0 0 0 0 0 0 0 0 0 0 0 0 0 0 0 0 0 0 0 0 0 0 0 0 0 0 0 0 0 0 0 0 0 0 0 0 0 0 0 0 0 0 0
Wind_Speed
4 3 3 3 5 5 6 4 2 3 2 1 1 1 1 1 2 3 5 4 4 2 1 1 2 3 4 5 6 6 7 7 8 8 8 8 8 9 9 9 9 8 8 9 9 10 10 10 10
3 2 3 4 6 7 6 4 5 2 2 1 1 1 1 1 4 4 3 4 4 2 2 2 4 3 4 4 5 5 6 7 7 7 7 8 9 8 8 8 8 8 8 9 9 9 9 9 9
1 2 3 4 6 7 4 4 3 2 1 1 2 0 1 2 3 3 4 3 2 3 3 3 5 4 4 4 4 4 4 5 6 7 7 8 8 8 8 8 8 7 8 8 9 9 9 9 9
2 3 3 5 8 5 2 2 3 3 2 0 1 2 3 4 4 3 3 2 2 3 3 4 5 5 5 5 4 4 4 4 5 5 6 7 7 7 7 7 7 7 7 7 8 8 8 8 8
2 3 5 6 7 3 1 1 2 3 2 1 2 2 3 3 4 3 2 2 3 3 3 4 6 5 5 5 5 4 4 4 4 4 5 6 7 7 7 6 6 6 6 7 7 8 8 8 8
3 4 6 8 7 4 3 2 3 3 2 1 2 2 3 4 4 3 3 3 3 3 3 3 5 5 5 5 5 5 4 4 4 4 4 5 5 6 6 6 6 6 6 6 7 7 7 7 7
3 4 6 7 6 5 3 2 3 3 3 1 1 2 3 3 3 2 2 2 4 4 3 3 3 3 4 5 5 5 4 3 4 4 4 4 4 5 6 6 5 5 5 6 6 6 6 6 7
2 3 5 6 7 5 3 2 0 2 1 2 1 3 1 2 1 1 2 3 4 4 4 4 3 3 2 2 4 4 5 3 3 3 4 3 3 4 5 5 5 5 5 5 6 6 6 6 6
3 5 7 6 6 3 3 2 1 1 1 0 1 3 4 2 2 2 2 2 3 4 4 4 3 2 2 1 2 2 3 3 2 2 3 2 3 3 4 4 5 5 5 5 5 6 5 5 6
4 6 6 2 3 2 3 2 1 2 3 2 2 1 3 2 2 2 2 1 2 3 3 3 3 2 2 1 1 1 1 1 1 1 1 1 2 2 2 4 4 4 4 4 5 5 5 4 4
3 5 3 2 2 2 2 2 1 4 4 3 3 2 2 2 1 1 1 0 1 1 2 3 3 2 2 1 1 1 1 1 1 1 1 0 1 1 2 2 3 4 4 3 4 4 3 3 2
3 2 2 2 1 2 3 2 2 3 3 1 0 2 2 2 1 1 1 1 1 1 2 2 2 2 2 1 1 1 1 1 1 2 2 0 0 1 1 1 2 2 2 2 2 2 3 3 3
5 2 2 2 2 2 2 4 3 3 2 1 1 2 2 2 2 1 1 1 1 1 2 2 2 2 1 1 1 1 1 1 1 1 1 1 0 0 1 1 1 2 2 2 2 3 3 3 3
2 3 3 2 3 3 3 3 3 4 2 2 2 3 2 2 1 1 1 1 1 1 2 2 2 2 1 1 1 1 1 1 1 2 2 2 1 0 1 1 1 1 2 2 2 3 2 2 2
2 3 4 4 3 3 3 4 5 4 3 3 3 2 2 2 1 1 2 2 2 1 1 2 1 1 1 0 1 1 1 1 1 1 1 2 2 1 0 1 1 1 1 2 2 3 2 2 2
3 5 5 4 3 4 6 7 3 3 4 4 3 2 2 1 1 1 2 2 2 2 1 2 1 1 1 0 0 1 1 1 1 1 1 1 2 1 0 0 0 0 1 2 2 2 2 2 2
6 6 7 4 4 4 6 6 2 3 4 4 4 3 3 2 2 2 1 2 2 2 2 2 2 1 1 0 1 1 1 1 1 1 1 1 2 1 0 0 0 0 0 1 2 2 2 2 2
6 6 6 6 4 5 7 7 5 4 5 5 4 4 3 3 2 1 1 2 2 2 2 2 2 1 1 0 0 1 1 1 1 1 1 1 1 1 0 0 0 0 0 1 1 2 2 2 2
5 7 7 6 2 5 7 8 7 5 5 5 5 5 4 3 1 0 1 2 2 3 3 2 2 2 1 1 0 0 0 0 0 1 2 1 1 1 0 1 0 0 0 0 1 1 2 1 1
7 8 7 4 2 4 6 9 7 6 6 6 5 5 4 3 1 1 1 2 2 3 3 3 3 2 1 1 0 1 1 1 1 1 1 2 1 1 0 1 1 0 1 1 1 1 1 1 1
8 9 8 5 2 4 5 8 6 3 3 3 4 4 3 2 2 1 1 1 2 2 3 2 3 2 2 1 0 0 1 1 1 1 1 2 1 1 1 1 1 1 1 1 1 2 2 2 2
8 5 6 6 5 4 4 6 5 4 3 3 3 2 1 1 1 0 1 2 2 2 2 2 2 2 2 1 1 1 1 1 1 1 1 1 1 1 1 2 2 2 2 2 2 2 2 3 3
4 2 4 5 6 4 5 6 5 4 5 4 3 2 1 0 0 0 1 1 1 2 2 2 2 2 2 1 1 1 1 1 1 1 1 1 1 1 1 2 2 2 2 2 2 2 3 3 3
4 4 3 3 4 6 6 8 5 3 4 3 2 1 1 0 0 0 1 1 1 1 2 2 2 2 2 2 1 2 2 2 2 2 2 2 1 1 1 2 2 2 2 2 3 3 3 3 3
5 4 3 4 5 5 3 7 6 1 2 3 3 1 0 0 0 0 1 2 2 2 2 2 2 2 2 2 2 2 2 2 3 3 3 2 2 2 2 3 3 3 3 3 3 4 4 4 4
6 5 4 4 4 2 4 7 3 1 0 2 2 1 0 0 1 1 2 2 2 2 2 2 3 3 3 2 3 2 2 2 2 3 3 3 3 3 3 3 4 3 3 3 4 4 4 4 5
5 6 2 2 1 4 5 4 3 2 2 2 2 1 1 1 2 2 2 3 3 3 3 3 3 3 3 3 3 3 3 3 3 3 3 3 3 3 4 4 4 4 4 4 4 4 5 4 5
2 3 3 4 4 5 5 6 4 4 5 4 3 2 1 2 3 3 3 3 3 3 3 3 3 3 3 3 3 3 3 3 3 3 3 4 4 4 4 4 4 4 4 4 4 4 4 5 5
5 5 4 3 3 4 4 3 0 3 4 4 3 2 2 3 3 3 3 4 4 3 3 3 3 3 3 3 3 3 3 3 3 3 4 4 4 4 4 4 5 5 4 4 4 5 5 5 5
4 5 6 4 4 4 4 3 2 2 2 3 3 3 3 3 3 3 3 4 3 3 3 3 3 3 3 3 3 3 3 3 4 4 4 4 4 4 4 4 5 5 5 5 5 5 5 6 6
Wind_Direction
325 298 253 228 220 224 228 196 189 164 166 71 11 275 259 313 318 38 52 25 8 24 41 100 59 80 94 106 109 119 123 125 128 131 133 130 128 128 127 123 121 118 117 117 117 115 114 114 111
313 274 223 223 234 223 212 191 191 169 88 110 155 230 207 89 34 46 47 10 9 41 50 67 62 74 85 103 103 114 124 125 127 128 129 129 126 126 128 127 124 121 119 116 116 114 113 116 115
258 264 229 217 230 235 203 161 166 116 105 205 151 32 354 50 48 38 18 355 22 50 47 56 59 65 77 93 99 99 114 120 124 124 127 128 127 125 125 125 124 122 121 118 115 113 113 116 120
227 198 214 231 224 235 254 134 135 156 148 178 193 143 101 45 18 19 14 7 58 58 49 56 54 67 76 80 91 89 101 111 119 124 125 129 127 124 123 120 119 119 120 121 120 117 118 115 119
232 217 211 223 232 221 226 228 202 215 179 162 217 179 120 81 42 38 38 45 59 59 48 54 50 60 74 76 75 84 88 102 105 115 125 129 127 125 120 118 113 116 121 123 122 122 122 122 118
195 219 224 224 219 205 208 217 222 226 199 180 223 207 114 93 51 39 43 55 53 51 45 52 49 48 59 63 66 69 74 95 103 105 112 127 130 127 122 118 116 113 118 122 122 121 121 122 122
220 219 234 230 221 213 195 197 226 229 214 194 259 213 138 115 46 38 50 64 60 54 47 48 51 47 53 54 53 57 56 81 99 98 99 100 126 133 132 127 124 119 118 126 128 126 127 126 125
259 226 221 220 221 215 160 168 301 266 242 48 272 241 136 84 71 75 71 61 57 51 41 36 35 35 46 67 55 52 50 61 79 89 88 86 109 138 139 135 128 126 122 130 134 131 129 126 125
227 226 223 215 216 197 160 189 121 1 164 182 320 358 28 83 133 113 81 55 47 41 31 24 26 31 30 57 62 58 56 56 77 101 95 120 155 155 156 140 128 132 129 130 136 138 132 129 125
212 228 227 219 219 195 174 214 176 200 217 215 195 90 73 117 146 126 100 68 36 22 20 17 16 23 33 46 71 68 81 96 88 104 151 173 155 146 147 128 129 133 130 134 133 137 143 153 144
207 232 207 196 195 207 209 229 215 227 241 247 230 162 131 149 154 151 158 39 14 6 10 10 10 13 20 31 57 58 58 48 54 65 37 183 154 149 164 153 155 159 160 161 148 160 162 164 146
199 218 220 197 167 221 230 223 225 241 261 355 182 154 164 180 196 214 225 281 341 357 351 355 3 8 15 13 37 70 84 55 50 40 27 2 176 173 168 170 174 177 171 171 173 173 162 166 160
206 197 203 211 208 238 234 237 253 245 248 216 171 179 195 198 212 258 278 287 307 322 322 330 344 354 5 9 6 65 87 71 73 56 23 351 274 203 174 168 175 182 173 175 176 172 163 171 169
187 193 216 224 220 217 226 255 230 240 208 200 198 201 209 214 228 253 293 295 285 288 298 313 324 333 359 18 19 34 60 68 62 54 35 6 339 237 194 169 179 182 183 184 187 170 168 171 177
180 214 224 216 224 210 219 244 227 215 190 206 211 215 220 235 248 269 291 302 305 310 308 308 306 332 353 26 32 30 42 79 72 60 40 30 3 351 200 163 169 182 179 178 180 172 175 167 176
200 216 223 183 200 196 221 249 204 187 202 224 232 230 223 242 277 303 308 311 325 336 350 1 6 9 356 33 93 65 26 46 57 47 42 40 20 6 298 137 136 334 179 176 172 182 177 173 179
205 229 230 207 196 195 221 253 220 204 220 235 238 234 223 230 277 303 320 322 332 334 340 7 20 28 12 13 113 97 56 32 31 43 37 40 32 19 335 2 31 22 183 177 174 184 186 180 182
222 230 230 228 190 209 228 248 256 250 242 243 243 238 228 229 255 285 324 342 348 350 355 5 12 22 31 55 118 134 114 40 21 16 20 19 32 6 316 284 67 75 158 177 172 179 174 184 189
234 231 250 252 219 234 243 254 259 257 247 242 237 234 232 232 232 310 344 3 9 14 12 11 1 9 18 20 341 202 250 308 324 3 15 360 2 4 323 305 205 142 185 220 185 170 157 165 181
222 232 250 264 187 236 259 266 265 248 241 240 236 227 226 233 249 342 357 8 6 5 3 1 356 357 355 344 322 281 269 269 290 358 6 350 345 337 286 278 258 204 210 200 185 173 170 157 181
230 233 246 264 264 221 260 258 229 210 221 228 228 224 225 233 250 306 349 354 351 354 351 349 347 343 342 331 304 138 194 235 289 335 335 340 328 296 251 245 241 219 216 209 211 204 193 190 190
245 231 232 242 239 233 231 267 231 206 215 208 207 208 230 237 247 289 341 348 344 340 341 345 349 347 346 323 241 206 215 237 274 293 294 303 305 276 251 240 237 226 221 212 212 222 219 200 199
239 165 198 229 233 250 220 248 248 187 223 219 212 214 229 225 208 291 342 332 326 340 342 344 359 355 346 324 276 228 228 244 262 262 271 276 284 287 266 243 234 232 233 225 220 231 230 219 216
161 139 144 194 217 238 220 229 255 202 221 211 209 212 203 197 180 353 360 335 329 343 346 348 348 343 336 318 294 258 236 236 241 249 253 257 262 262 264 254 237 234 238 231 227 231 232 232 229
187 184 211 208 212 231 174 226 254 247 226 212 208 212 218 29 334 327 342 331 325 326 328 323 314 313 314 306 298 285 272 257 244 245 245 251 251 251 255 258 248 238 235 232 231 231 235 237 234
198 212 229 246 238 222 187 231 247 21 243 207 195 213 289 302 337 323 318 314 305 299 301 297 290 292 296 294 294 289 285 276 264 259 254 251 252 250 250 251 249 245 239 230 229 232 233 238 239
193 209 252 267 263 253 227 233 244 211 198 191 191 217 289 303 317 323 323 313 307 293 285 279 276 279 284 283 281 279 273 268 269 267 264 261 260 252 242 241 241 241 240 237 232 233 232 235 237
252 167 179 210 231 245 233 231 223 195 206 202 213 236 267 301 310 316 317 310 311 294 281 278 268 267 275 275 273 276 272 268 266 266 263 260 262 259 246 243 239 237 238 241 241 244 241 240 238
176 189 209 210 249 256 253 226 94 228 214 211 226 250 274 292 298 303 311 313 311 298 283 277 272 272 274 274 274 276 275 270 266 264 264 265 262 257 246 241 241 238 238 240 241 244 245 246 244
229 217 205 223 221 230 261 269 69 241 218 237 257 272 283 290 295 299 306 311 308 301 295 284 277 277 283 283 281 283 283 275 268 266 266 265 261 256 249 244 241 240 241 242 242 243 246 246 243